Location: Chicoutimi
(48.4330°N, 71.0670°W)
Time: 17:47:18
(UTC-05:00)

ISS - Visible Passes

Search period start: 27 February 2017 00:00
Search period end: 09 March 2017 00:00
Orbit: 399 x 408 km, 51.6° (Epoch: 28 February)

Date Brightness Start Highest point End Pass type
(mag) Time Alt. Az. Time Alt. Az. Time Alt. Az.
02 Mar -0.4 05:15:59 10° S 05:17:51 14° SE 05:19:42 10° ESE visible
04 Mar -1.4 05:05:58 10° SSW 05:08:49 27° SE 05:11:41 10° E visible
05 Mar -0.9 04:15:24 15° SSE 04:16:24 17° SE 04:18:36 10° E visible
06 Mar -2.7 04:57:45 19° SW 04:59:52 51° SSE 05:03:05 10° ENE visible
07 Mar -1.9 04:07:20 31° SE 04:07:20 31° SE 04:10:18 10° E visible
07 Mar -3.2 05:40:21 10° W 05:43:38 66° NNW 05:46:56 10° ENE visible
08 Mar -0.1 03:16:50 12° E 03:16:50 12° E 03:17:18 10° E visible
08 Mar -3.4 04:49:28 30° WSW 04:50:58 89° SSE 04:54:16 10° ENE visible
